Theta_e
319 318 319 319 319 321 322 320 323 324 323 324 324 324 324 322 326 325 323 339 344 337 337 338 336 336 339 340 339 338 338 342 341 344 346 337 331 330 331 332 333 335 337 339 340 339 336 334 331 329 330 330 330 331 329 327 326 325 324 324 325 326 328 329 328 327 328 329 329 329 330 331 331 332 333 334 336 337 337 337 337 336 336 334 333 333 332 333 333 335 329 319 315 313 308 311 316
318 318 318 318 320 322 321 320 326 328 327 327 324 323 323 330 339 334 330 341 342 336 337 337 337 337 337 337 336 337 337 337 336 338 339 335 334 332 331 332 334 336 338 339 340 338 335 333 331 330 330 331 333 332 330 327 325 324 324 324 325 326 328 329 328 328 328 328 327 328 329 330 331 331 331 332 333 335 335 336 336 334 333 333 333 333 334 334 335 333 322 314 313 309 311 316 321
317 318 317 319 321 321 322 322 324 329 330 327 326 323 322 337 346 340 336 339 337 336 337 335 337 337 336 337 337 339 338 336 336 337 336 334 333 333 333 334 335 337 338 340 339 337 334 333 332 332 333 334 334 331 328 326 325 326 326 327 327 328 329 329 329 330 329 329 329 328 328 330 331 331 331 331 331 333 333 334 334 333 331 332 333 333 334 334 336 331 316 311 310 310 317 321 324
317 317 317 319 321 321 327 327 326 332 330 326 327 324 324 336 341 338 338 337 335 336 335 335 337 336 336 338 338 338 337 336 337 337 335 334 334 333 334 335 336 337 339 338 337 336 334 334 332 332 335 334 332 328 326 327 329 329 330 331 330 330 330 329 329 329 329 330 330 329 329 329 330 330 331 331 331 332 333 333 333 333 333 333 333 333 335 335 336 329 314 310 310 315 324 325 328
316 316 317 319 322 322 326 327 327 331 329 325 325 326 331 336 335 333 333 332 333 335 335 335 337 336 336 337 336 337 337 337 336 336 336 335 335 334 334 335 336 337 338 337 335 336 336 335 333 333 335 333 330 328 329 331 332 333 332 332 331 330 330 330 328 328 327 328 329 329 329 329 330 330 331 331 332 333 333 333 333 334 335 334 335 336 337 336 335 327 315 309 310 318 327 330 331
315 316 318 319 320 320 326 327 323 326 326 323 324 329 335 334 330 331 331 330 331 332 334 334 336 336 335 336 336 337 337 337 336 336 336 336 336 335 335 336 336 337 337 336 335 335 336 335 334 334 334 332 332 332 332 333 333 333 333 332 331 330 330 329 328 328 327 327 328 329 330 331 331 332 332 331 331 332 333 333 333 333 334 334 335 336 335 332 331 327 317 313 311 317 327 331 332
316 317 318 320 319 319 328 329 323 328 329 325 329 332 333 331 329 331 332 333 332 331 334 334 334 335 335 335 336 337 336 336 336 335 336 335 336 335 336 337 336 337 336 336 336 336 336 334 334 333 332 331 332 332 331 332 333 333 333 333 333 332 332 330 329 330 328 327 329 330 330 331 332 332 332 332 331 331 332 332 333 333 334 334 333 333 333 331 331 327 321 321 314 315 328 332 332
316 317 317 321 323 322 326 328 327 330 331 328 330 331 330 330 330 331 332 334 334 330 332 334 333 334 335 335 336 336 336 336 336 336 335 335 335 335 337 338 336 337 336 336 336 336 336 334 333 331 330 329 329 330 330 332 332 332 332 333 333 332 332 329 328 330 329 327 329 330 330 331 332 332 332 333 332 331 331 332 332 332 333 333 332 332 333 332 333 327 321 324 315 314 328 332 332
317 318 318 321 323 323 324 326 328 328 329 329 330 331 329 330 330 331 332 331 333 331 330 332 332 334 334 335 336 336 336 335 336 336 335 335 337 337 337 337 336 337 336 336 336 335 334 333 332 330 329 328 328 329 330 331 330 331 331 332 332 331 330 328 326 326 327 327 328 329 330 329 330 330 330 330 330 329 329 330 330 330 331 332 331 332 333 332 332 323 317 320 313 313 326 331 331
316 318 317 322 324 323 328 329 330 330 329 329 329 330 331 330 330 331 331 331 332 332 331 332 332 334 335 335 336 335 335 335 335 335 335 336 338 337 336 336 336 336 335 335 335 334 333 332 330 329 328 327 327 327 328 328 328 328 330 331 331 330 330 328 326 325 326 327 327 328 327 327 328 328 329 329 329 328 328 328 328 328 330 331 331 331 332 332 330 320 316 319 316 315 324 330 329
317 317 317 325 329 327 331 334 332 331 329 329 330 329 331 331 331 331 331 332 331 331 331 332 333 333 334 335 336 335 334 334 335 336 336 336 336 336 335 336 336 335 335 334 332 331 330 329 328 327 327 327 326 325 324 324 325 326 328 330 330 329 329 328 327 326 326 327 328 328 328 329 330 329 329 329 329 328 327 327 328 328 329 329 330 331 331 333 328 318 319 323 322 321 324 328 327
317 317 325 327 327 327 328 335 334 332 331 332 332 329 331 331 332 332 332 333 332 332 332 332 333 332 333 334 336 335 334 335 335 336 337 335 334 335 334 335 335 334 332 331 330 329 328 327 327 327 327 327 326 325 324 325 326 326 327 329 330 329 329 328 328 327 328 328 329 329 330 330 330 329 328 327 329 328 328 327 328 329 329 329 330 331 331 333 328 318 321 325 324 324 325 327 327
317 316 332 325 321 329 329 334 334 334 335 333 333 330 330 331 332 333 333 334 332 333 332 332 332 331 333 334 335 334 335 335 335 336 335 332 333 335 334 333 332 331 330 329 329 329 329 328 327 328 327 326 326 325 326 328 327 326 327 329 329 329 329 329 328 328 328 328 329 329 329 329 329 329 326 326 327 326 326 326 327 328 329 330 330 332 332 333 330 323 321 323 324 324 325 327 327
317 316 330 322 322 335 332 334 335 337 337 331 332 330 330 331 331 333 333 334 332 333 333 332 331 331 333 334 334 333 334 335 333 333 332 331 332 334 333 331 330 330 330 330 330 329 328 327 327 327 326 327 327 328 329 330 328 327 328 329 330 330 329 329 328 328 328 328 329 330 329 329 329 329 327 325 325 325 326 325 325 326 328 329 330 331 332 331 331 328 321 319 323 323 323 325 326
317 315 327 325 324 334 331 334 335 336 336 332 332 331 331 331 330 332 333 333 332 333 332 332 331 331 332 333 334 334 335 334 332 332 332 332 332 332 331 330 330 330 330 330 329 329 328 327 327 327 327 328 328 329 329 330 329 329 329 329 330 330 329 329 329 329 328 328 329 329 329 328 328 328 327 327 327 327 328 327 325 324 325 326 328 329 330 330 330 326 317 318 323 321 322 323 324
317 317 328 328 325 331 332 332 332 336 335 331 331 330 332 331 330 331 333 333 332 332 332 332 331 331 332 333 334 333 333 333 332 332 333 332 331 331 330 330 330 330 330 330 330 329 327 327 327 327 327 328 328 328 328 329 329 329 329 329 330 330 329 329 329 329 328 328 327 328 328 327 326 326 326 326 327 327 327 328 326 324 324 323 325 328 329 328 327 319 309 317 324 322 322 323 323
316 320 331 329 328 332 333 332 334 337 333 330 330 330 333 332 331 331 332 332 332 332 332 332 332 332 332 332 332 333 332 332 332 333 332 332 331 331 330 330 330 330 330 329 329 329 328 327 328 327 327 327 327 327 327 328 328 328 329 329 329 329 328 327 327 328 327 327 327 327 327 327 326 325 325 326 327 327 328 327 326 326 326 324 324 326 328 328 326 315 307 318 326 322 323 324 324
316 325 332 326 328 330 330 332 331 332 331 330 330 330 332 331 331 331 331 331 331 332 332 333 333 333 333 332 333 333 332 332 333 332 332 331 331 330 331 331 331 330 330 329 330 330 330 329 329 328 326 326 327 327 327 328 328 328 328 329 329 329 328 328 327 328 328 327 327 326 326 327 327 327 326 327 328 328 328 328 327 326 327 327 326 325 327 328 322 310 307 319 326 323 324 326 326
318 330 334 326 327 327 325 328 327 329 330 329 329 329 330 330 330 330 331 331 331 332 331 332 332 333 334 333 334 333 332 333 333 331 330 330 330 331 331 331 330 330 330 329 330 331 331 330 329 328 327 327 328 328 328 328 328 328 329 328 328 328 328 328 328 328 328 328 328 327 326 327 327 327 327 328 328 328 328 328 327 327 327 328 328 327 327 328 319 307 309 319 325 325 326 327 327
315 330 337 326 326 327 325 326 327 329 329 330 330 329 329 329 330 330 330 330 331 331 332 332 332 332 333 333 333 333 332 331 331 330 330 330 331 331 330 330 329 329 330 330 331 331 331 330 329 329 328 328 329 330 329 329 329 329 329 329 328 328 328 328 328 328 328 328 328 328 327 328 328 328 328 328 329 328 328 328 328 327 327 327 328 328 327 329 320 308 311 318 323 325 326 327 327
316 327 334 325 326 329 329 328 327 329 330 330 330 329 330 330 330 330 329 330 332 331 332 332 332 332 332 333 332 332 331 331 331 330 330 330 330 329 329 329 329 330 330 330 331 331 330 330 329 329 329 329 330 330 329 329 328 328 329 329 328 328 328 327 327 326 327 328 328 328 328 329 329 329 329 329 330 329 328 327 328 327 327 327 327 328 327 329 325 314 311 315 320 324 326 327 327
322 325 327 326 328 330 330 329 329 330 331 330 330 330 331 330 331 330 329 331 332 331 332 332 332 332 332 332 332 331 331 331 331 331 330 330 329 329 330 330 330 329 329 329 330 330 330 330 330 329 330 330 330 328 328 328 328 329 330 329 329 329 327 324 323 324 325 326 326 327 328 329 329 329 329 329 329 330 329 328 328 327 327 328 327 328 327 328 329 323 315 312 317 324 327 327 327
327 327 327 328 329 330 330 330 330 331 331 332 332 331 331 331 331 330 329 330 332 331 332 333 332 331 331 331 331 331 331 331 331 331 331 330 329 330 330 329 329 329 328 329 329 329 329 329 329 329 330 330 329 329 328 328 329 330 330 330 330 329 326 321 319 320 322 323 324 326 328 328 328 329 329 329 329 329 329 329 328 328 328 329 327 327 327 327 329 328 324 317 317 322 326 328 328
329 329 329 330 330 330 329 327 328 330 331 331 331 331 330 330 330 330 329 330 331 331 332 332 331 331 331 331 331 332 332 332 331 331 331 330 330 330 330 329 329 327 327 327 328 328 328 328 329 329 329 329 329 329 329 328 328 330 329 329 330 330 327 322 319 319 319 320 322 325 326 327 327 328 328 329 328 328 329 329 329 329 329 329 328 326 327 327 327 328 328 326 323 321 323 326 328
330 330 330 330 330 329 328 326 326 327 329 330 330 330 330 330 330 329 329 330 331 331 331 331 331 331 331 331 332 332 332 333 332 332 331 331 331 330 330 330 329 327 326 327 327 327 328 328 329 328 328 328 328 329 329 328 328 329 329 329 329 330 329 326 322 320 319 319 320 322 324 326 327 328 328 329 329 328 328 329 329 329 329 329 329 328 328 328 327 327 327 328 328 326 324 324 325
330 330 330 329 328 327 327 326 325 326 327 329 329 329 329 329 329 329 329 330 330 330 331 331 331 331 330 331 331 331 332 332 332 331 331 332 331 331 330 330 329 328 329 329 328 328 328 329 328 327 327 328 328 328 328 328 328 329 329 329 329 329 329 328 327 325 324 321 318 318 320 323 324 326 328 329 329 329 328 329 329 329 329 329 329 329 330 330 329 328 328 327 327 328 327 326 325
329 329 329 327 327 327 327 326 326 327 327 327 328 328 328 328 329 330 329 329 329 330 331 331 331 331 331 331 329 330 331 332 331 330 331 330 330 331 330 329 329 329 329 329 330 330 330 329 328 328 328 329 328 328 327 327 328 328 328 328 327 327 327 328 328 327 328 325 320 318 317 318 319 321 324 327 328 329 329 329 329 329 329 329 329 330 330 330 330 329 329 329 328 328 329 329 328
328 328 327 326 326 326 326 326 326 327 327 327 327 327 327 328 329 329 328 328 329 329 330 330 331 331 331 331 332 332 332 331 329 327 326 326 327 327 326 326 326 327 327 328 330 331 330 330 329 329 329 330 329 328 328 328 327 327 327 327 327 327 326 327 328 327 327 327 325 322 319 318 316 316 318 322 325 326 327 328 328 328 328 328 329 329 329 329 329 328 328 329 329 329 329 329 329
328 327 327 327 326 327 326 326 326 325 327 326 326 328 329 329 329 329 328 327 328 330 330 330 331 332 332 332 331 331 330 328 326 325 325 326 326 326 326 326 326 326 326 327 328 328 328 329 329 329 329 329 329 329 329 329 329 328 328 327 326 326 326 327 326 326 327 327 327 326 323 322 319 316 314 315 318 321 323 324 323 322 323 325 326 327 328 328 328 327 327 328 328 328 328 328 328
327 326 326 327 328 328 325 325 325 325 326 325 326 331 332 329 328 328 327 327 328 330 329 330 332 332 331 330 330 329 329 328 327 328 328 329 329 329 329 328 328 328 327 327 327 327 327 328 328 328 328 328 328 329 328 328 329 329 328 326 325 324 325 325 325 325 327 327 327 326 324 324 323 321 317 315 315 315 317 320 321 320 320 322 324 326 327 327 327 327 327 327 327 327 327 328 327
327 327 328 331 332 329 326 325 325 326 326 324 326 331 332 328 327 327 327 328 329 329 327 328 330 331 330 329 329 330 330 330 329 329 329 329 329 329 329 329 329 329 328 328 328 328 328 328 328 328 328 328 327 328 328 328 328 327 326 325 323 323 323 324 324 325 326 327 327 326 325 326 326 324 323 322 320 317 315 316 318 319 318 319 322 324 326 327 326 327 327 327 327 327 327 327 327
325 331 334 334 334 330 328 325 325 327 326 325 328 331 330 328 327 326 326 327 328 327 326 326 329 330 331 331 331 330 329 329 328 327 327 327 326 326 326 326 325 326 326 326 327 327 327 327 327 328 327 328 328 328 328 327 327 326 325 324 323 322 322 323 324 325 326 326 326 326 327 328 327 326 326 326 325 323 321 317 315 316 316 317 319 320 323 323 323 324 326 327 327 326 324 324 324
323 332 336 333 332 331 329 327 325 326 327 328 329 330 330 328 327 326 326 326 326 327 326 326 329 330 331 331 329 328 328 327 326 326 325 324 323 323 322 322 321 322 322 322 322 323 324 324 325 326 326 326 327 327 328 327 327 326 325 324 323 322 322 323 325 326 326 326 327 328 328 328 328 328 328 328 327 326 326 323 319 316 316 317 319 319 320 320 320 320 323 324 324 322 320 319 319
324 330 334 332 330 331 331 330 326 326 329 331 329 329 330 328 326 326 326 326 326 326 327 326 328 329 330 329 328 326 326 325 325 325 324 323 323 321 320 320 319 319 319 319 320 321 321 323 324 324 324 324 325 325 326 326 326 325 325 324 324 323 323 324 324 325 325 326 327 327 327 326 327 327 328 327 327 326 326 326 324 321 320 321 321 320 320 321 321 320 320 321 321 320 319 319 319
325 328 331 331 329 331 332 330 328 326 329 330 329 329 330 326 326 326 325 325 325 326 327 327 327 329 329 328 327 326 326 325 325 325 324 323 322 321 319 318 318 318 318 319 319 319 320 321 322 322 322 322 323 324 324 325 324 324 324 324 323 323 323 323 323 323 323 324 324 324 324 324 324 325 326 326 325 324 325 326 326 325 324 325 324 323 323 323 323 323 321 320 320 320 320 321 321
324 325 329 332 331 330 331 330 328 327 328 328 328 330 329 326 326 326 325 325 325 325 326 327 327 328 328 328 327 326 326 326 325 325 324 322 321 320 319 318 318 318 318 319 318 319 318 318 319 319 319 320 321 321 321 322 322 322 322 322 322 322 323 322 323 322 322 322 322 322 322 323 323 323 323 324 323 322 323 324 325 325 326 326 326 325 325 325 325 324 323 322 321 319 320 322 322
324 327 330 331 330 330 330 329 327 325 328 328 327 328 328 327 326 325 325 325 324 325 326 327 327 327 327 327 327 326 326 326 325 324 323 321 320 319 318 318 318 318 318 318 318 318 317 317 317 316 316 316 316 316 317 318 319 319 320 320 320 321 321 321 321 321 321 321 322 321 321 322 322 322 322 323 323 322 322 322 322 323 324 324 324 324 325 326 326 325 325 324 323 321 321 323 323
325 329 331 331 331 332 329 329 327 325 328 328 326 328 329 328 327 325 324 324 324 325 326 326 326 327 327 327 327 326 326 325 325 324 322 320 319 318 317 317 317 317 317 317 317 316 316 315 315 314 314 314 314 313 313 314 316 317 318 318 318 317 317 317 317 318 318 319 320 320 321 321 321 321 321 321 322 322 321 321 321 321 321 322 322 322 323 324 324 324 324 324 324 323 323 324 325
327 328 330 331 331 331 328 329 329 326 328 329 326 328 329 327 327 325 325 325 325 325 325 326 326 327 327 327 327 326 326 326 325 323 322 320 318 318 317 316 315 314 314 314 314 314 313 313 312 312 312 311 311 311 311 312 314 315 315 314 313 313 312 312 312 312 312 313 314 316 317 318 318 319 319 319 319 320 320 320 320 320 320 320 321 321 321 322 322 322 322 322 322 322 323 324 325
327 328 330 332 330 331 331 329 328 327 326 327 326 327 327 326 326 326 325 326 325 325 325 325 326 326 327 327 326 326 326 325 325 323 321 320 319 318 318 317 315 313 311 311 310 310 310 309 309 309 309 309 308 308 309 310 312 312 312 311 310 310 310 310 310 309 309 309 310 311 312 314 315 315 315 316 316 316 317 317 317 317 318 318 318 319 319 320 321 321 321 321 321 321 322 323 323
325 326 329 332 331 332 333 329 327 327 325 325 327 328 327 327 328 327 325 326 325 324 325 325 325 325 326 327 326 326 326 325 324 323 321 321 320 320 319 319 317 313 311 309 308 308 308 308 308 308 308 307 307 307 307 308 308 308 308 308 308 307 308 308 308 308 308 309 309 309 310 310 311 312 312 312 312 313 313 313 314 315 315 315 315 316 316 317 318 319 320 320 320 321 321 321 322
326 325 329 330 332 333 331 329 330 331 329 326 326 329 328 327 330 329 326 327 326 324 324 325 325 325 326 327 326 326 326 325 324 323 322 322 321 321 320 320 317 314 311 310 309 308 307 308 308 308 307 307 307 307 308 308 307 307 307 307 307 307 307 306 307 308 309 310 310 310 309 308 309 309 310 310 310 310 310 311 311 313 313 313 314 314 314 314 315 316 317 318 319 320 320 320 321
328 327 329 329 332 332 329 331 335 335 331 326 326 331 330 326 328 328 326 328 329 325 324 325 325 325 325 326 326 326 325 324 323 322 322 322 321 321 321 320 317 314 312 310 309 308 307 307 307 307 307 307 307 308 308 308 308 308 308 308 308 308 308 309 309 310 311 311 311 310 309 308 308 308 308 309 309 309 310 310 310 311 312 312 312 312 312 312 313 315 315 316 316 317 318 319 320
328 326 328 331 331 330 331 335 335 332 329 327 329 331 332 330 326 325 325 328 330 327 325 325 325 326 325 326 326 325 325 324 323 322 322 321 321 320 319 318 316 314 312 310 309 308 308 307 307 307 306 307 308 308 309 309 309 309 309 309 308 308 309 311 312 312 312 310 309 308 308 308 308 308 308 309 310 310 311 311 311 311 311 311 311 311 310 310 311 312 314 314 315 315 315 316 318
326 323 326 329 328 329 332 334 332 330 329 331 331 327 330 334 327 323 326 328 329 329 327 325 325 326 325 325 326 324 324 324 322 321 321 320 319 317 317 316 314 313 311 310 309 309 309 309 308 308 307 308 309 310 310 310 309 309 309 309 308 308 310 312 312 312 310 309 308 308 308 309 309 309 310 310 311 312 311 311 311 311 312 312 311 311 311 310 310 311 312 313 313 313 314 314 315
324 322 325 325 325 328 330 330 331 331 331 333 334 329 329 335 331 325 328 330 330 329 328 325 325 327 326 325 325 324 324 323 322 321 320 319 317 314 315 315 313 312 311 311 311 311 310 310 310 310 309 310 311 311 311 310 310 309 309 309 307 308 310 311 312 310 309 309 309 308 309 310 310 310 310 310 310 311 311 311 311 311 311 311 311 311 311 310 310 310 310 310 311 311 312 312 312
322 324 326 325 329 332 332 333 331 330 334 335 332 329 328 331 334 331 330 332 332 331 328 325 324 326 326 325 325 324 324 323 322 321 320 319 315 313 316 315 312 312 311 312 311 311 311 311 311 311 311 311 311 311 311 311 310 310 309 309 308 307 308 309 309 309 309 309 309 308 308 309 310 309 309 310 310 309 310 310 309 309 309 309 310 310 309 310 310 309 309 309 309 310 310 310 311
323 328 328 328 332 332 333 335 331 329 333 332 327 327 326 328 332 331 329 331 329 328 329 326 324 326 326 326 325 325 325 324 322 321 319 317 314 313 315 313 312 312 312 312 312 311 312 312 312 312 311 312 312 311 312 311 310 309 309 309 308 307 307 307 307 308 308 308 308 308 307 307 308 308 308 308 309 308 308 308 308 308 308 308 308 308 308 308 308 308 308 308 309 309 309 310 310
324 328 330 331 331 331 332 332 330 329 329 325 326 327 327 332 333 329 329 330 326 325 325 325 324 325 327 327 325 325 325 323 322 320 319 316 314 313 313 311 312 313 312 312 312 312 312 312 312 312 312 312 312 312 312 311 310 309 309 309 308 307 307 307 307 307 307 308 307 307 308 307 307 307 307 307 308 308 308 307 307 307 307 307 307 307 308 308 307 307 307 307 308 308 309 309 309
325 326 332 335 332 331 332 328 326 329 329 325 326 327 330 335 331 326 327 326 323 323 324 325 326 325 327 327 326 325 324 324 322 320 318 316 315 313 311 312 313 313 313 313 313 312 312 312 312 312 312 312 312 312 312 310 309 309 309 309 308 308 308 307 307 308 307 307 307 307 308 308 308 307 307 307 307 307 307 307 307 307 307 307 307 307 307 307 307 307 306 307 307 308 308 309 309
324 326 329 332 335 335 333 332 332 332 330 327 325 326 331 334 328 324 324 321 322 324 324 325 326 326 327 326 326 325 324 323 322 320 318 316 315 313 312 312 314 314 313 313 313 313 312 312 313 313 312 312 312 313 312 310 309 309 309 309 308 308 308 308 307 308 308 308 308 308 308 308 307 308 307 307 307 307 306 306 306 306 306 306 307 307 307 307 306 306 306 307 308 308 308 308 308
324 322 324 326 331 335 329 327 331 332 331 330 327 326 330 331 327 324 323 321 322 324 324 325 326 325 327 326 325 325 324 323 322 320 318 316 314 313 313 313 314 314 314 313 313 313 313 312 313 313 313 313 312 313 312 310 309 309 309 309 308 308 308 308 307 308 307 308 308 308 308 307 307 307 307 306 306 306 306 307 306 306 306 306 306 306 306 306 305 305 306 306 307 307 307 307 307
326 321 327 326 323 331 330 323 324 327 330 329 326 331 334 331 328 327 327 326 322 322 323 323 325 325 325 326 325 325 324 323 322 320 318 317 315 314 314 314 314 314 314 314 313 313 313 313 313 313 313 312 312 313 311 309 309 309 308 308 308 308 308 307 307 307 307 307 307 307 307 307 306 306 306 306 306 306 306 306 306 305 305 305 305 305 305 305 305 304 304 305 306 306 306 306 306
328 326 329 323 317 326 333 329 328 328 330 329 327 333 337 334 333 330 329 329 324 322 322 321 323 325 324 325 325 325 325 325 323 321 318 317 315 314 315 315 315 315 315 314 314 313 313 313 313 313 313 313 313 312 310 309 309 309 308 308 308 308 308 307 307 307 307 307 307 307 306 306 306 306 306 306 306 306 306 306 305 305 305 305 305 304 304 304 304 304 304 305 305 305 305 305 306
324 326 322 320 322 326 328 328 332 331 329 332 330 330 332 334 335 333 329 331 328 322 321 321 321 322 323 325 325 325 325 325 323 321 318 317 316 314 315 315 315 315 315 314 313 313 314 313 313 313 313 313 313 312 310 309 309 309 309 308 308 308 308 307 307 307 307 307 306 306 306 305 305 305 306 305 305 305 305 305 304 304 304 304 304 304 304 305 305 305 305 306 306 306 305 305 305
316 320 320 322 329 331 326 325 331 334 331 331 330 329 334 335 334 334 331 331 330 324 323 322 321 321 323 324 325 325 325 325 323 320 318 317 315 315 315 315 315 315 315 314 314 314 314 314 313 313 313 313 312 312 310 309 309 309 309 308 308 308 307 307 307 307 307 306 306 305 305 304 303 303 303 303 304 304 304 304 304 304 303 302 302 303 305 305 305 305 305 306 306 306 305 304 304
318 323 323 323 324 322 323 322 323 331 335 333 331 333 339 336 329 331 333 329 326 323 321 321 319 322 324 323 324 325 324 325 322 319 317 316 315 315 315 315 315 316 315 315 314 314 314 314 314 313 313 313 312 311 309 309 309 309 308 308 308 307 307 307 306 306 306 306 305 304 303 303 303 303 302 302 302 302 303 303 303 302 302 302 303 304 305 305 305 304 304 304 305 305 305 304 304
325 328 323 325 326 323 325 322 318 327 333 333 333 334 339 335 325 326 330 326 320 317 317 318 319 322 323 323 324 324 325 325 322 319 317 315 315 315 315 315 315 316 316 316 314 313 314 314 314 314 313 313 312 310 309 309 310 309 309 308 308 307 306 306 306 306 305 305 304 303 303 303 303 303 302 301 301 301 301 302 302 302 303 303 305 306 306 305 305 304 304 304 304 304 305 305 305
Wind_Speed
2 4 4 1 2 4 4 3 1 3 3 1 2 1 3 4 2 4 4 2 4 5 11 14 11 12 12 12 12 11 8 4 2 1 5 13 18 18 18 19 16 14 11 11 11 9 9 9 9 8 7 6 5 5 6 8 8 8 8 8 8 8 8 9 9 9 9 9 9 8 8 7 7 6 6 5 5 6 6 5 5 5 5 4 4 4 4 2 2 2 1 2 1 1 2 4 6
3 4 4 0 3 4 2 4 1 3 4 3 3 2 3 5 4 4 2 3 7 8 16 25 23 21 19 17 14 11 11 8 6 9 15 19 18 16 18 19 16 14 11 11 10 9 10 8 9 8 8 6 6 6 8 8 8 8 8 8 9 9 9 9 8 8 8 8 8 7 7 6 6 5 5 4 4 4 4 4 4 3 3 2 2 2 2 2 2 2 2 2 1 2 4 6 8
3 3 2 2 4 5 3 4 2 1 4 2 4 2 3 5 5 4 6 10 13 13 14 17 17 13 9 8 7 6 6 10 13 15 19 19 16 16 17 18 16 14 11 11 10 10 10 9 9 9 9 7 6 7 8 8 8 8 8 9 9 9 9 8 8 7 7 6 7 6 6 5 5 5 5 4 4 3 3 3 2 3 2 1 1 1 2 2 2 3 3 1 1 4 6 7 9
2 1 1 3 4 5 4 4 2 4 2 2 3 3 6 5 6 8 10 9 7 6 4 7 9 9 8 8 6 6 6 9 13 14 17 16 15 16 16 16 15 13 11 11 10 10 10 10 10 9 8 7 7 7 8 8 8 9 8 9 8 8 8 7 6 6 5 5 6 5 5 4 4 4 4 4 3 3 3 3 3 3 3 2 1 1 1 2 4 4 4 1 3 6 7 7 8
1 1 3 3 3 2 3 3 2 4 1 1 1 5 6 4 8 9 15 21 13 2 2 5 5 9 13 9 5 4 5 7 8 9 12 12 14 16 15 14 13 12 11 11 11 11 11 10 10 9 8 7 7 8 8 8 8 8 8 7 7 6 6 6 5 5 4 4 4 4 4 4 4 4 4 3 2 2 2 2 2 3 2 2 2 2 3 5 7 6 4 1 3 7 7 7 7
2 5 6 6 6 3 3 3 2 2 2 2 2 5 4 4 7 8 12 19 21 13 2 6 7 10 10 7 9 7 4 4 5 8 11 13 15 17 15 14 12 11 11 11 12 11 11 10 9 9 8 8 9 8 8 8 7 7 7 6 6 6 5 5 5 4 4 3 3 3 3 3 3 3 3 3 2 1 1 2 3 3 4 3 1 3 5 6 5 5 4 1 3 7 8 8 8
3 5 6 6 6 3 4 3 2 2 1 3 4 5 6 4 4 7 7 7 16 22 8 11 13 11 7 4 9 8 4 4 6 11 14 16 18 18 16 12 11 11 11 12 12 11 11 9 8 9 9 8 9 8 8 8 7 6 6 6 5 6 6 5 5 4 4 3 3 3 3 2 3 3 2 3 2 1 2 2 4 4 5 5 3 4 5 4 3 3 2 2 4 7 9 9 8
4 5 6 5 3 4 4 3 2 2 3 6 6 8 6 6 4 4 5 5 6 17 16 6 7 7 4 3 6 5 5 4 7 13 16 17 17 16 14 11 12 12 12 13 12 12 11 10 9 8 8 8 8 8 8 7 6 5 5 5 5 5 5 5 4 4 3 2 2 2 2 2 2 2 2 1 1 2 2 3 4 5 5 4 3 3 2 3 2 2 2 3 4 7 9 9 9
7 7 5 5 3 3 3 1 1 1 3 6 7 10 7 7 9 3 4 3 4 9 22 20 10 5 6 8 8 6 5 4 9 14 17 15 11 12 13 11 12 11 12 13 11 11 10 9 8 8 8 7 8 8 8 7 5 4 4 3 4 5 5 5 4 3 2 3 2 2 2 2 2 1 1 1 1 2 3 3 4 4 4 3 2 1 1 1 1 1 2 3 5 8 9 9 9
8 7 4 4 3 2 2 1 2 2 3 5 6 9 7 8 11 10 7 3 5 6 14 16 6 7 11 9 9 8 7 8 12 14 15 12 9 12 13 11 10 10 11 10 10 11 11 10 9 8 8 7 7 7 7 6 4 3 2 2 3 4 5 5 5 4 3 3 2 2 2 2 2 1 0 1 2 2 3 4 4 3 3 3 2 1 0 1 1 1 2 2 2 6 8 8 9
6 5 4 4 4 2 1 2 3 3 3 3 4 9 9 11 13 12 10 8 6 4 9 14 6 10 10 5 7 10 11 12 13 11 12 10 11 13 12 11 10 10 10 9 10 10 10 10 9 8 8 7 6 6 6 5 3 2 1 1 2 3 4 5 5 4 4 3 3 3 3 3 2 1 1 1 2 2 3 3 3 2 3 3 2 1 0 1 1 1 0 1 1 4 7 8 8
4 1 4 4 2 3 3 4 4 2 3 2 3 8 9 13 13 7 7 7 6 4 9 11 3 4 3 2 7 13 12 12 12 9 10 11 12 13 12 13 11 11 11 10 10 9 9 8 8 8 7 6 5 5 5 4 3 2 2 2 2 2 3 4 4 3 3 3 3 3 2 2 2 1 1 1 1 2 3 3 3 3 3 3 2 1 1 1 1 2 2 2 2 4 6 8 9
5 1 5 3 2 3 3 4 3 3 3 2 2 6 5 10 10 6 5 5 9 8 8 10 2 1 1 4 9 12 8 9 10 9 12 12 12 13 13 14 13 12 12 11 10 9 8 7 7 6 5 4 4 4 4 4 3 3 3 2 2 3 3 3 3 3 2 2 2 2 2 2 1 1 1 1 1 1 2 2 2 2 2 2 1 1 1 1 2 2 3 4 3 4 6 8 8
5 3 5 2 1 2 3 3 2 3 1 2 3 5 5 7 7 8 8 6 9 9 5 8 4 4 2 5 10 11 8 10 10 10 12 12 12 13 13 14 13 12 12 11 10 9 8 6 5 5 4 3 4 4 4 4 4 4 4 3 3 3 3 3 2 2 2 2 2 2 2 2 2 2 2 2 1 1 1 2 1 2 1 1 0 1 1 2 3 3 4 6 5 4 6 8 8
4 4 4 3 2 3 2 1 3 4 1 1 4 6 9 8 6 9 13 6 5 10 7 6 5 4 1 2 7 9 11 13 12 12 13 13 14 14 14 14 13 13 12 10 9 7 6 6 5 5 5 5 5 6 5 6 6 5 4 3 3 3 3 3 3 2 3 2 2 2 2 2 1 1 1 1 0 0 1 0 1 1 1 1 1 1 2 3 3 4 5 7 7 6 5 7 9
4 3 4 3 2 1 2 2 3 3 2 1 2 6 10 12 9 10 13 6 5 12 9 5 6 8 8 6 9 9 10 12 13 15 15 15 15 15 15 14 13 12 10 9 8 8 8 8 7 8 7 7 7 7 7 7 7 6 5 4 3 3 3 3 3 2 2 3 3 2 2 2 2 2 1 1 1 2 2 2 1 1 1 2 2 2 3 4 4 4 6 8 9 7 5 6 9
2 2 4 3 2 3 3 3 4 3 2 3 4 7 8 9 10 10 10 10 10 11 12 11 13 18 15 11 12 11 12 14 14 15 14 15 15 15 15 14 13 11 10 10 10 10 10 10 10 9 9 8 9 8 8 8 8 7 5 4 3 3 3 3 3 3 3 3 3 2 2 2 2 2 2 2 2 3 3 3 3 2 2 2 2 3 3 4 4 4 7 10 10 9 7 8 9
1 2 4 2 1 2 3 4 5 5 3 4 7 9 10 8 8 7 7 12 13 11 16 18 19 21 17 12 11 12 14 15 14 14 14 14 14 15 15 14 13 12 12 11 11 11 10 10 11 10 10 10 10 9 9 9 8 7 6 5 4 4 4 4 4 4 4 4 4 3 3 2 1 1 1 1 2 3 3 3 3 3 3 2 2 3 3 4 4 4 8 12 11 10 10 10 10
2 3 4 1 2 0 2 7 6 6 8 9 9 9 10 8 8 9 8 9 10 10 14 18 20 18 15 12 10 11 14 14 13 12 13 14 14 15 15 14 13 13 13 13 12 11 11 10 10 10 10 10 10 10 9 9 9 8 7 6 5 5 5 5 5 5 4 4 5 4 4 3 2 2 2 1 1 3 3 3 3 3 3 3 3 3 4 3 3 4 8 11 12 11 11 11 10
2 3 4 1 4 2 4 11 11 12 16 13 9 11 15 11 10 12 11 8 8 9 10 13 16 14 13 12 12 13 14 14 12 12 14 15 16 16 15 14 14 14 14 13 12 12 11 10 10 10 10 11 11 10 10 9 9 8 7 7 6 6 6 6 6 6 5 6 6 5 5 4 4 4 4 3 3 3 3 3 3 3 3 4 4 4 4 3 3 2 6 9 10 11 11 11 11
3 2 2 3 6 6 4 12 16 16 19 18 13 14 15 13 13 11 8 6 7 9 8 9 11 11 11 10 11 14 14 14 14 14 15 16 17 16 16 15 15 14 13 12 12 12 11 11 11 11 11 11 10 10 10 9 9 9 8 8 8 8 8 8 8 7 7 6 7 7 6 5 5 5 5 4 4 3 3 3 3 3 3 3 4 4 4 3 2 2 5 7 9 10 10 11 11
6 4 5 5 8 7 7 15 19 17 19 20 15 12 11 13 15 13 9 6 6 8 8 8 9 10 10 10 12 13 13 14 15 16 16 16 17 17 17 16 14 13 12 12 13 12 12 11 12 12 11 10 10 10 10 10 10 10 8 8 8 8 8 8 8 7 7 7 7 7 8 7 6 6 6 6 6 4 3 4 3 3 3 4 4 4 4 4 3 3 4 5 8 10 10 10 10
7 5 10 15 15 11 12 18 17 16 19 16 12 11 15 16 15 16 16 12 10 12 11 10 10 10 10 11 13 14 14 15 16 17 17 17 17 16 15 14 13 13 12 13 12 12 11 12 11 11 10 10 10 10 10 10 10 9 8 7 7 7 7 7 7 7 7 7 7 7 7 8 8 7 7 7 7 6 6 4 3 3 4 4 4 4 4 4 4 4 3 3 5 8 10 11 11
13 5 11 19 22 19 18 20 17 18 22 18 18 17 14 14 11 12 15 12 13 14 13 13 12 11 11 13 14 14 15 17 17 17 16 16 15 14 14 13 13 12 12 13 12 11 11 11 11 10 10 10 10 10 10 9 9 9 8 7 6 6 6 6 6 7 6 6 6 6 6 7 8 7 7 8 7 7 7 5 4 4 4 4 4 4 4 4 5 5 5 4 5 7 9 11 12
10 7 12 18 20 21 24 25 20 19 20 23 26 21 16 17 14 11 10 10 12 12 13 14 13 12 13 15 16 15 16 17 17 16 15 14 14 14 13 13 11 11 12 13 11 11 11 11 10 10 10 10 11 10 10 9 9 9 8 8 7 6 5 5 6 7 7 7 6 6 6 6 7 7 8 8 7 7 7 6 5 5 5 4 3 4 5 5 6 6 6 6 6 7 7 9 11
8 14 17 17 17 20 26 27 22 17 15 18 22 17 16 15 12 10 8 9 12 13 15 15 15 15 15 16 18 17 17 17 17 16 15 13 13 14 13 13 12 12 12 11 11 11 10 10 9 10 10 11 11 10 10 9 9 9 8 9 9 7 5 5 6 6 7 8 7 7 7 6 6 6 7 7 7 7 6 6 5 5 5 4 3 4 4 5 6 6 6 7 7 7 7 8 10
20 25 22 19 18 18 21 22 22 19 15 17 15 12 14 10 6 5 4 9 13 15 16 16 17 15 15 16 18 18 18 18 17 16 15 14 14 14 13 13 13 12 10 10 11 11 10 9 9 9 10 11 11 11 10 10 10 9 9 9 9 7 5 5 6 6 7 7 7 7 8 7 7 6 6 6 6 7 7 6 6 6 6 5 4 4 4 4 5 5 5 6 7 7 7 8 9
29 30 21 16 19 17 18 18 14 11 13 19 15 12 17 12 5 3 3 10 13 16 16 17 18 16 15 16 17 18 18 17 15 14 15 15 15 14 14 14 13 12 10 11 11 10 10 10 10 10 10 10 10 10 10 10 9 9 9 9 9 8 7 6 7 7 7 7 7 7 7 7 8 8 6 6 6 6 6 6 6 6 6 5 4 4 4 4 5 6 6 6 7 7 7 8 9
23 23 15 9 13 10 10 15 9 9 5 15 11 9 12 9 5 4 4 9 12 15 14 14 17 16 15 16 16 17 17 16 15 15 16 16 15 15 15 14 13 12 12 12 10 9 10 10 10 10 10 9 8 9 9 9 8 8 8 9 10 9 8 8 8 8 7 7 8 8 8 7 8 8 7 6 6 6 6 6 6 7 6 5 4 5 5 5 5 5 6 6 7 7 8 9 9
11 10 8 7 8 3 4 13 11 1 4 7 1 4 5 6 7 4 4 8 11 14 12 13 16 15 16 17 17 17 17 16 17 17 17 17 16 15 15 14 13 12 12 11 10 10 10 9 9 9 8 7 7 8 7 8 8 8 8 9 9 9 9 8 8 8 7 7 7 7 8 8 8 8 8 6 6 6 6 6 6 7 7 6 6 6 5 5 5 5 6 6 7 7 7 8 8
5 4 3 3 5 2 2 9 13 5 8 12 8 2 4 3 5 2 3 7 12 14 9 10 16 16 17 18 19 19 18 18 18 17 17 17 16 15 14 13 12 11 11 11 11 10 9 8 9 8 8 7 7 7 8 8 8 8 8 8 9 9 8 7 7 7 6 6 6 7 8 8 8 9 9 8 8 7 6 5 5 6 7 7 7 7 6 6 6 6 6 7 7 7 7 7 8
3 3 1 3 4 3 2 5 10 5 3 6 8 4 4 3 3 2 3 5 12 14 8 7 14 17 17 18 19 19 18 18 17 17 16 15 15 14 13 12 11 10 9 10 9 8 8 8 8 8 8 9 9 9 9 8 8 8 8 9 9 8 8 7 6 6 5 5 5 6 7 8 9 9 9 10 10 10 9 7 5 5 5 5 6 6 7 7 8 7 7 8 8 8 8 8 8
2 3 2 1 3 4 1 2 4 4 3 4 4 5 4 3 4 4 3 5 11 12 7 6 13 17 17 18 18 19 18 17 17 16 15 15 14 13 12 11 10 9 9 9 8 8 9 9 9 9 10 10 10 10 9 9 9 9 9 9 9 8 8 8 7 6 5 5 5 5 6 7 8 8 9 10 10 11 11 10 8 6 5 5 5 6 7 8 9 8 8 8 9 9 9 9 10
2 2 2 2 3 4 3 3 4 5 3 4 6 7 6 6 7 7 5 7 11 11 7 7 12 16 17 18 18 18 17 17 16 15 14 14 14 13 12 10 10 10 10 10 9 10 10 10 10 11 12 12 11 11 10 10 10 10 10 10 9 9 9 9 8 7 6 6 6 6 6 7 7 7 8 9 9 10 10 11 10 9 7 7 7 7 7 8 9 9 9 9 10 11 12 12 12
5 3 3 2 2 4 4 3 3 7 8 7 8 7 8 8 8 8 6 9 11 8 8 11 14 16 18 18 18 17 16 16 15 14 13 13 12 12 11 10 10 10 10 9 9 10 11 11 11 12 13 13 13 12 11 10 10 10 10 10 10 10 11 10 9 9 9 8 8 7 7 7 7 7 7 7 8 8 8 9 9 9 9 9 10 9 9 9 9 9 10 10 10 11 12 13 14
7 4 5 5 4 3 3 3 4 8 10 8 8 8 7 7 7 7 7 8 9 8 9 12 14 15 17 19 19 17 16 15 14 13 13 12 12 11 10 9 9 8 8 8 9 10 11 11 11 12 14 13 12 12 11 11 10 11 11 11 12 12 12 11 11 11 11 11 10 9 8 8 8 7 7 7 7 8 8 8 8 9 9 10 11 11 11 11 11 12 12 12 12 11 10 11 12
9 6 5 6 6 3 3 4 4 7 8 6 8 9 6 5 5 5 8 9 8 10 12 11 11 13 15 19 19 18 17 15 13 12 11 11 10 10 9 8 7 7 8 8 9 10 11 11 11 12 13 11 12 12 12 12 12 12 12 12 13 12 12 11 12 12 12 12 11 11 10 10 9 8 8 7 7 7 7 8 8 8 9 10 11 11 12 12 13 14 14 13 14 13 11 10 12
7 6 5 4 4 3 2 4 2 4 7 6 8 9 7 5 4 4 9 10 6 9 12 10 11 12 15 18 20 19 18 15 12 10 9 8 8 8 7 7 7 7 8 8 9 10 10 10 11 12 11 11 12 13 13 13 13 13 12 12 12 11 11 11 12 12 11 11 11 11 12 11 11 11 10 10 9 8 8 8 8 9 9 9 9 10 10 11 12 13 14 14 14 14 13 12 13
7 5 5 3 3 3 3 4 4 4 5 5 6 7 5 3 3 4 7 9 6 8 10 10 13 14 15 18 19 18 17 14 11 9 8 7 7 7 6 6 6 6 7 7 8 8 8 9 10 10 10 11 12 12 12 13 12 12 11 11 10 10 11 11 11 11 10 10 10 11 12 12 12 12 11 11 11 11 10 10 10 10 10 10 10 10 10 11 11 12 13 14 14 14 14 13 13
5 4 5 4 2 3 3 3 4 5 5 6 7 5 3 2 2 3 4 8 9 9 9 10 12 14 15 16 16 15 15 14 12 10 9 7 6 5 5 5 6 6 6 7 7 8 8 9 9 9 10 11 12 12 12 12 10 10 10 9 9 8 9 9 8 8 10 11 11 12 12 12 12 12 11 11 11 11 11 11 11 10 10 11 11 11 11 12 12 13 13 13 15 15 16 14 13
2 3 4 4 4 5 5 3 3 7 6 5 6 5 2 2 1 2 2 6 10 11 11 9 10 12 13 15 16 14 14 13 12 11 9 7 6 6 5 5 5 6 7 8 8 8 9 9 10 10 11 11 11 12 12 12 10 10 10 9 9 10 10 10 10 11 12 13 14 14 13 12 11 11 11 11 11 11 11 11 11 10 10 10 10 10 11 11 11 12 13 13 14 15 16 16 15
1 1 1 5 8 8 8 6 4 6 3 2 3 4 1 3 1 2 0 2 6 10 12 10 11 13 15 17 18 16 14 12 11 10 9 8 7 7 6 5 5 7 8 9 9 9 9 9 10 9 9 10 11 13 14 14 14 15 15 14 15 16 17 17 16 16 15 15 15 15 15 14 13 12 11 11 11 11 11 11 11 10 11 10 10 10 10 11 11 11 12 13 13 13 15 16 17
2 2 4 8 10 10 8 5 4 3 3 2 3 4 2 3 2 3 2 3 4 6 9 11 13 16 18 21 20 18 16 14 12 9 9 9 8 7 6 5 5 7 8 9 9 9 9 8 8 8 9 11 14 16 16 16 17 18 19 20 20 20 19 17 15 15 15 15 15 15 15 15 15 14 13 13 12 11 11 11 11 11 11 12 12 12 12 12 12 11 12 12 13 13 14 15 17
2 2 9 10 10 10 6 5 4 2 3 1 3 4 2 1 3 3 3 5 3 3 6 9 13 16 20 23 22 20 18 14 11 10 10 9 8 6 4 3 4 6 7 8 10 11 10 10 10 10 11 12 14 16 17 18 18 20 22 23 22 19 17 15 13 13 14 15 15 15 15 15 15 15 15 14 13 12 11 11 12 12 12 13 13 14 14 14 13 12 12 13 14 14 15 14 15
1 2 10 8 8 8 4 6 4 1 3 1 4 3 3 2 4 2 2 4 4 5 6 8 13 17 20 24 23 20 17 13 9 9 10 8 6 3 1 2 3 6 8 10 12 12 12 12 12 11 11 12 14 17 19 20 20 22 23 24 22 18 15 13 13 14 15 16 15 15 15 15 15 15 15 14 13 12 12 13 13 14 14 14 14 15 15 15 14 14 14 15 16 16 16 15 15
4 8 10 7 7 6 4 5 3 3 4 2 5 1 2 3 3 1 1 2 5 6 6 8 15 19 20 23 23 20 16 11 9 8 8 6 3 1 1 2 4 6 8 11 12 13 13 14 14 12 11 13 15 17 19 19 19 20 23 24 22 18 15 14 14 16 16 15 15 16 16 15 14 15 15 15 14 13 14 14 14 15 15 15 16 16 17 17 17 17 17 17 17 17 17 17 17
11 10 9 7 6 4 4 3 3 4 3 4 5 3 4 2 4 2 3 3 5 7 5 6 14 19 19 21 21 19 15 12 10 8 8 6 3 1 1 1 4 6 8 11 11 12 14 14 14 13 13 14 15 16 16 16 17 19 21 24 23 19 16 15 16 17 16 15 16 16 16 15 14 14 14 15 16 16 16 16 16 16 17 17 17 18 18 19 19 19 19 19 18 18 18 19 19
9 6 5 5 4 4 4 4 3 3 2 5 3 2 5 1 4 3 4 5 5 8 7 8 13 19 20 19 20 18 14 13 12 9 8 7 3 2 3 2 4 6 8 9 9 10 10 11 12 13 13 13 13 13 13 14 15 18 20 23 24 22 19 18 18 18 17 17 18 17 18 18 16 16 15 15 16 17 18 18 19 18 18 18 18 18 18 18 18 18 18 18 18 18 18 18 19
6 5 5 5 3 3 3 2 2 1 3 2 1 1 2 2 5 4 5 6 6 8 11 15 19 22 21 20 21 19 16 16 14 11 9 6 3 3 3 3 5 6 6 6 6 6 6 7 8 9 10 10 10 10 11 12 14 17 19 21 22 22 21 21 20 20 19 19 19 18 19 20 20 19 18 17 17 18 19 20 20 19 19 18 18 18 19 19 19 19 18 18 17 17 17 18 18
5 5 4 4 3 3 0 2 1 2 3 2 1 1 1 3 2 3 5 6 9 9 12 20 24 25 24 22 22 22 19 18 16 12 9 6 4 4 4 5 5 5 5 4 4 3 2 3 4 5 7 8 8 9 9 11 13 16 18 19 19 20 20 21 20 20 19 18 18 18 18 20 20 20 20 20 19 19 21 21 20 20 20 20 20 20 19 20 20 19 18 18 18 18 18 18 19
4 3 5 4 3 4 3 3 2 2 2 2 3 1 1 1 2 4 4 3 6 8 10 18 23 25 24 22 23 24 21 19 17 12 9 7 6 6 6 7 6 5 5 4 3 2 1 1 2 3 5 7 7 7 8 10 13 15 18 18 18 18 18 18 18 18 18 17 17 17 17 18 19 20 21 21 20 21 21 21 20 21 21 22 21 20 20 20 20 19 18 17 17 18 18 19 19
1 2 4 1 3 5 2 2 4 3 1 1 1 2 2 3 4 5 2 6 9 10 12 18 22 24 23 23 25 26 21 19 17 14 11 10 9 9 8 8 7 7 7 6 4 2 1 1 2 4 5 6 7 7 8 10 12 15 16 16 16 16 16 16 17 17 17 16 16 17 18 19 19 20 20 20 20 20 20 20 20 21 22 22 22 22 22 21 20 18 17 17 17 17 18 18 18
1 2 2 4 3 7 5 1 1 3 3 1 1 2 4 2 2 4 5 6 6 9 13 17 21 24 24 25 27 26 22 20 18 16 14 12 12 11 10 9 9 9 8 6 4 2 2 2 4 5 6 6 7 7 7 9 12 13 14 15 15 16 16 17 18 18 17 17 17 18 18 19 19 20 20 20 20 20 20 20 21 22 22 22 22 23 22 20 19 18 17 17 16 17 17 17 17
4 3 5 3 3 4 5 2 3 4 1 3 1 2 3 1 1 3 3 3 1 4 9 13 18 23 25 26 27 26 24 22 19 17 16 14 14 13 11 11 11 9 7 6 4 4 3 4 5 7 7 7 7 7 7 9 11 12 13 14 15 16 16 17 18 18 18 18 18 18 18 18 19 20 20 20 20 21 21 21 22 22 22 22 23 22 21 19 18 17 16 15 16 17 18 17 17
4 4 3 3 3 1 2 3 1 1 1 3 3 2 2 3 3 3 3 5 4 4 5 8 14 20 24 26 27 27 26 24 21 19 18 17 16 15 13 13 12 10 8 7 6 6 6 6 7 8 8 8 8 7 7 8 10 11 12 13 15 15 16 17 17 17 17 17 18 18 18 18 19 19 20 20 21 22 22 22 23 23 23 23 22 20 19 18 17 16 16 15 16 17 19 19 18
2 3 2 2 2 3 2 2 3 3 2 2 2 3 3 5 5 6 9 8 7 7 5 7 15 22 25 27 28 29 28 26 23 21 20 18 17 15 14 13 12 11 10 8 8 9 8 8 9 9 9 9 8 7 6 7 9 11 12 13 14 15 16 16 16 16 16 17 17 17 18 19 20 20 20 21 21 22 22 22 22 22 22 22 20 17 17 17 17 17 17 17 17 18 20 20 19
1 1 1 1 1 2 2 1 2 3 4 2 0 2 5 5 4 7 10 8 8 10 8 10 17 23 25 27 28 29 29 27 24 22 20 19 17 15 13 13 13 13 12 11 10 10 10 10 11 11 10 10 8 6 6 8 10 11 12 13 15 15 16 16 15 15 15 16 16 17 19 21 21 21 20 20 20 20 21 21 21 20 19 18 17 15 16 17 18 19 19 20 20 20 20 20 19
4 3 3 3 3 3 3 0 1 2 3 3 3 1 6 5 3 5 7 7 10 14 14 15 20 23 25 27 28 29 28 27 25 23 20 19 17 15 14 14 15 15 15 14 12 11 11 11 12 13 12 10 8 6 6 8 10 11 12 13 14 15 16 16 14 14 15 15 16 18 19 21 22 22 21 20 20 20 20 19 18 17 16 16 15 14 16 17 19 20 20 20 20 20 20 20 20
Wind_Direction
273 317 325 341 45 89 75 81 88 356 69 57 297 344 275 258 295 292 291 81 96 26 53 83 101 103 105 104 110 101 79 94 139 136 136 154 146 136 136 134 136 141 149 151 143 131 127 128 131 134 125 108 92 88 95 94 92 92 92 95 97 98 98 101 104 103 104 104 105 109 114 119 124 128 129 131 128 128 136 138 132 126 128 131 129 130 118 83 49 52 337 331 295 207 148 141 130
278 315 330 351 71 102 112 63 93 337 46 16 303 184 270 314 347 309 291 78 115 125 86 86 92 93 101 107 101 83 63 65 98 119 132 149 149 139 135 133 135 140 153 154 141 135 134 130 126 127 121 110 100 96 93 90 90 90 90 92 92 93 94 95 97 98 99 104 107 108 110 112 115 119 124 130 128 128 132 129 119 113 119 116 112 118 89 38 49 51 348 343 37 121 129 134 128
288 310 329 164 96 96 109 48 79 53 50 352 292 234 312 343 1 14 72 97 120 125 103 93 87 77 95 99 59 57 73 79 95 121 138 146 141 135 135 134 139 145 155 150 142 143 144 136 127 121 117 116 110 103 98 96 91 86 82 81 80 83 86 85 88 91 90 98 107 108 107 107 107 110 113 121 129 132 130 130 133 134 133 125 121 96 59 38 80 48 5 10 83 116 129 131 128
301 304 174 153 101 75 80 44 116 114 51 312 273 334 4 12 20 34 52 62 118 148 131 105 78 51 70 81 49 70 92 92 98 120 138 140 137 139 139 139 143 147 150 146 142 140 139 134 133 127 120 123 116 106 101 97 86 80 74 72 72 75 81 81 83 87 86 95 103 109 110 109 107 107 112 114 123 132 149 156 167 169 167 169 149 49 65 70 67 33 7 56 118 126 124 124 130
312 79 108 107 80 54 79 65 92 95 110 220 256 357 18 27 12 18 12 354 341 314 132 90 86 77 72 66 44 65 84 98 107 118 138 148 145 144 142 142 145 145 145 144 141 132 128 126 128 127 121 116 104 96 91 83 78 77 73 70 67 69 73 75 79 83 86 90 96 112 120 123 120 116 120 121 134 143 172 178 193 206 211 202 136 56 51 51 45 22 1 49 142 142 131 133 139
115 93 90 89 86 85 83 69 69 87 218 204 56 6 9 33 5 6 15 354 349 348 10 83 109 109 74 52 58 55 63 90 112 124 146 157 149 143 137 139 145 144 142 139 138 131 123 120 122 120 117 111 101 95 88 84 81 78 73 69 61 61 61 66 73 78 85 91 100 118 124 134 130 126 135 148 179 186 223 234 244 251 264 265 67 32 22 23 18 12 359 353 171 164 151 147 147
134 103 88 93 75 58 92 101 132 125 13 41 59 25 2 45 8 336 42 41 358 345 347 94 106 106 79 62 63 46 63 102 125 131 146 152 147 138 129 140 147 141 142 138 135 129 122 123 125 121 118 113 106 103 98 94 89 80 75 71 63 59 53 58 68 75 81 95 111 119 127 139 130 144 171 174 195 229 251 256 266 271 285 303 352 355 2 1 354 24 355 268 209 183 162 153 152
122 101 91 98 52 32 97 116 143 154 45 51 57 50 38 61 50 315 43 70 18 346 335 20 64 68 83 85 62 53 75 105 131 137 144 141 139 131 129 148 147 143 146 136 131 127 122 128 130 126 123 120 114 109 105 98 91 84 73 67 63 57 45 45 62 76 82 107 119 110 114 113 113 141 178 189 214 253 270 271 282 293 304 319 337 334 4 357 3 31 278 253 232 193 166 159 160
104 93 93 94 70 41 73 84 105 126 50 56 49 56 68 73 65 48 48 47 75 360 322 312 321 35 97 84 72 83 88 131 144 138 137 132 129 132 141 148 143 146 142 128 125 123 119 119 117 118 117 116 111 104 100 93 85 77 66 55 47 49 44 43 56 73 93 120 126 118 108 100 106 111 137 252 275 280 290 287 293 308 317 328 345 357 54 317 16 14 290 271 243 199 174 168 169
92 80 101 92 76 63 42 19 53 44 44 64 55 51 60 75 74 60 33 336 51 35 326 329 355 94 103 89 77 92 104 130 136 133 140 138 124 133 142 142 141 140 132 120 115 115 113 109 106 111 111 106 100 92 85 78 71 61 59 55 41 44 47 49 54 64 82 99 108 107 96 90 101 98 130 292 319 309 311 308 306 313 316 339 8 15 166 295 53 43 312 302 248 193 182 183 180
81 57 98 89 73 96 139 105 58 46 40 64 59 39 48 72 86 70 19 330 28 62 314 343 55 100 96 92 79 105 117 124 129 134 150 138 112 126 135 132 131 125 122 114 107 107 106 107 109 111 111 106 93 80 69 58 48 26 24 38 37 38 44 49 53 64 79 89 93 88 83 79 85 76 39 359 355 344 340 336 334 331 325 349 15 23 68 347 67 103 99 65 177 186 188 198 196
92 352 84 88 113 155 171 121 72 47 20 30 40 20 51 74 77 68 6 329 350 357 338 356 98 102 58 78 87 121 121 117 130 123 123 115 105 115 117 117 119 114 113 106 101 100 98 105 111 110 108 100 84 70 57 49 43 33 23 14 27 35 44 52 53 66 79 89 85 77 75 68 74 67 35 20 16 13 11 9 360 353 345 354 14 61 97 79 91 130 166 155 167 195 200 208 207
126 183 86 93 165 140 115 108 78 45 5 9 27 6 66 82 55 21 355 345 341 347 13 20 75 164 347 85 101 139 126 100 121 110 108 113 111 111 110 112 112 108 103 100 100 98 100 103 102 99 92 81 67 54 46 53 57 48 30 12 18 25 36 42 48 63 65 79 80 79 82 71 83 75 66 71 36 17 24 25 5 358 6 6 23 116 134 148 150 172 200 191 180 195 208 215 210
132 140 100 119 98 83 91 100 92 74 343 322 3 8 76 78 37 27 20 9 358 356 352 355 27 114 85 80 116 146 126 105 124 132 127 121 117 114 112 110 106 104 103 105 106 104 103 95 86 79 72 66 56 53 59 75 67 46 34 24 17 15 20 23 30 46 40 48 61 66 61 63 80 80 85 89 68 36 30 39 17 356 360 345 293 175 178 187 196 221 221 209 203 200 205 214 211
108 110 97 100 58 50 90 104 115 110 198 282 14 40 68 53 38 41 29 16 349 346 324 328 360 108 102 49 121 122 104 112 127 135 131 122 120 118 115 113 112 113 111 109 104 100 91 80 76 73 71 71 73 73 77 84 74 58 49 34 20 22 23 27 30 31 31 25 13 13 8 14 30 64 91 100 130 335 338 21 14 347 302 272 256 236 217 215 221 231 219 209 212 206 196 205 209
88 96 77 77 87 73 104 110 120 122 180 180 50 67 62 41 43 40 20 12 1 353 353 8 28 101 117 90 95 97 100 115 121 123 125 122 121 119 117 116 116 114 107 97 84 77 71 69 71 70 69 73 78 78 77 79 73 65 57 37 28 37 28 29 41 37 32 26 16 7 348 337 331 314 308 297 272 268 256 244 244 238 260 263 251 239 226 223 231 233 207 198 206 207 197 199 202
104 68 63 63 123 146 154 155 154 148 157 132 94 103 91 57 54 48 29 36 40 29 39 61 78 98 109 97 99 113 114 112 115 120 120 116 114 111 107 104 102 98 90 81 72 70 68 68 68 66 66 72 77 75 75 75 71 65 59 46 36 39 31 22 30 28 25 34 34 26 4 336 317 318 322 309 295 276 259 251 246 254 267 257 247 238 235 234 243 235 197 189 195 199 198 203 200
97 70 83 79 136 157 183 172 158 134 124 113 96 109 116 98 80 72 53 45 48 55 59 73 85 94 105 108 117 126 114 107 109 112 110 106 104 99 95 93 90 87 83 77 72 71 70 70 68 68 71 76 78 76 75 74 72 68 62 52 36 37 40 30 20 14 18 28 26 21 26 23 352 359 10 344 306 285 271 267 271 288 294 284 265 251 248 249 255 236 195 187 191 194 198 204 203
69 83 87 85 179 218 176 146 134 125 120 106 84 84 97 93 85 90 83 49 44 53 52 68 79 85 96 100 111 117 110 107 107 108 107 105 101 98 96 94 91 88 85 81 78 75 74 74 70 72 76 78 78 75 73 70 67 65 58 47 36 39 44 33 20 17 19 20 15 14 26 29 24 21 14 353 297 280 277 281 290 299 303 305 294 285 279 274 277 239 199 192 193 197 202 205 206
66 88 85 229 176 85 125 134 122 125 117 103 87 78 76 75 85 94 100 75 47 48 40 57 71 76 83 88 102 108 109 111 115 115 111 108 102 99 96 93 92 89 86 83 80 77 74 72 70 73 77 79 76 70 67 66 63 58 52 41 31 33 37 30 20 18 20 19 16 13 15 11 3 5 1 343 315 290 284 284 294 303 306 315 310 303 303 301 306 242 208 203 202 206 209 209 209
46 66 120 178 144 81 84 124 117 117 110 104 103 88 76 81 92 95 112 99 53 57 55 64 77 83 86 91 101 106 112 113 113 111 106 103 99 95 90 84 84 82 83 83 80 77 73 70 71 72 73 74 68 63 63 61 56 51 49 43 35 32 32 30 25 21 22 21 20 14 9 6 1 3 4 356 343 319 306 301 302 307 306 318 317 306 300 300 299 243 226 225 218 215 216 214 214
60 48 67 81 103 85 78 103 108 109 107 105 98 89 96 95 82 73 84 87 69 86 92 92 94 98 100 100 103 107 108 105 102 98 95 93 91 88 85 83 82 82 83 81 76 72 70 68 68 67 67 65 62 63 63 58 52 49 48 47 41 38 34 32 31 28 26 20 18 16 11 14 20 17 13 11 7 356 344 328 311 317 323 325 321 309 297 287 279 260 247 243 231 220 220 221 220
89 42 48 60 71 76 77 84 93 100 96 91 88 100 108 96 76 66 69 79 102 116 119 117 114 114 116 114 114 111 102 98 96 92 89 87 86 84 85 85 81 78 76 73 69 65 64 63 61 59 57 56 55 56 55 54 52 47 41 38 35 37 37 36 38 38 33 23 19 18 14 20 28 28 24 22 19 13 6 359 356 354 345 335 328 319 301 285 278 273 269 262 242 226 225 227 227
104 71 60 70 70 71 78 84 87 94 92 91 99 98 88 87 88 70 65 90 119 125 126 124 123 122 122 119 112 107 100 97 93 89 88 86 83 81 80 79 75 72 72 68 64 62 61 58 54 52 49 46 44 43 44 45 46 40 30 23 19 27 37 40 41 40 35 29 26 22 22 28 32 34 33 29 27 22 19 25 31 17 1 354 346 337 324 309 296 285 281 279 264 243 234 234 235
84 93 87 82 78 81 91 92 77 69 83 100 101 87 74 81 83 67 59 92 111 116 119 116 120 123 120 115 105 100 98 93 89 86 85 84 82 80 76 73 71 71 68 64 62 61 57 52 50 51 50 46 43 43 43 41 39 35 28 20 16 21 33 39 36 33 30 25 23 25 28 34 34 37 37 32 32 31 31 35 32 20 9 6 9 357 341 333 325 311 297 287 280 268 256 249 245
85 100 96 89 83 88 94 94 85 67 60 83 92 85 85 85 73 54 49 83 99 107 109 107 116 118 111 108 103 99 95 88 85 83 81 82 81 79 75 71 69 66 63 61 61 59 54 49 48 48 46 44 41 40 41 38 33 31 28 23 19 18 28 34 25 25 29 23 20 21 24 31 32 35 36 33 33 31 30 30 25 20 11 4 4 353 341 343 338 324 312 302 296 287 280 272 263
108 99 94 94 92 88 90 94 100 97 72 66 76 85 78 70 79 62 62 99 108 116 114 115 116 108 102 102 101 97 92 88 87 88 86 81 77 73 70 67 63 61 57 56 52 47 45 44 44 40 37 36 31 29 30 28 24 23 22 20 19 19 24 25 16 17 25 26 26 24 20 21 23 23 28 30 30 25 20 18 15 14 15 9 358 340 329 339 331 317 315 313 307 300 294 287 279
112 103 91 87 95 92 89 89 79 69 87 86 72 72 66 56 77 68 96 106 114 124 120 121 116 105 102 99 98 96 92 93 93 92 85 76 72 68 64 60 56 54 48 45 39 33 31 32 36 33 32 32 26 22 20 21 22 21 21 22 24 25 24 19 15 12 11 18 24 27 23 15 12 11 12 17 22 21 14 10 6 2 7 9 358 344 335 335 324 317 318 313 304 299 295 292 289
110 107 100 91 93 84 82 93 63 4 96 108 69 54 58 38 39 42 88 102 119 122 107 109 110 106 107 103 102 99 95 94 88 80 75 70 66 62 59 54 48 44 40 38 32 28 27 26 29 27 27 26 23 21 17 22 28 30 30 28 29 30 26 17 14 12 8 10 13 20 21 10 6 7 7 8 10 14 12 9 6 0 3 6 357 347 343 341 333 326 322 314 307 302 296 293 292
98 91 101 116 97 74 89 110 115 41 219 178 69 48 69 29 35 65 102 105 124 113 93 102 105 104 108 106 102 97 94 89 83 78 74 71 66 61 57 50 41 36 33 31 26 26 26 25 27 24 22 19 21 25 22 27 33 36 33 28 28 29 26 20 17 16 11 8 6 9 12 8 2 5 14 16 9 9 3 358 360 2 5 7 4 358 352 349 345 338 331 327 322 315 309 302 299
99 72 64 102 104 152 171 133 144 178 226 201 193 92 89 56 34 89 137 120 127 114 100 108 105 105 105 104 102 97 94 88 85 82 75 72 67 59 53 45 38 31 28 27 24 24 21 21 23 19 18 18 22 28 28 30 30 30 25 21 21 21 25 26 26 26 17 8 0 358 5 9 4 2 10 16 15 13 6 351 343 350 356 359 1 359 357 355 351 345 337 333 332 327 322 315 308
82 93 349 353 98 152 242 160 155 181 233 158 151 120 87 100 66 131 152 119 116 108 101 98 102 108 105 102 103 98 93 88 84 79 72 69 62 54 47 42 39 33 33 31 28 26 23 26 25 21 22 22 24 28 29 30 28 26 24 22 22 22 26 31 38 39 31 20 4 354 358 3 3 0 1 4 6 6 6 0 349 345 344 345 349 346 343 344 345 346 341 333 331 327 322 318 312
354 93 172 266 121 142 207 149 137 175 222 24 89 138 116 98 109 147 151 103 99 95 92 94 104 111 107 104 102 97 93 86 79 71 64 58 53 50 44 42 44 43 43 40 39 41 42 42 40 39 40 35 33 33 32 30 27 24 24 26 26 24 27 34 39 38 33 28 14 2 358 354 353 353 353 354 355 354 355 354 352 354 351 342 337 331 328 329 331 333 334 328 323 322 320 318 313
316 56 134 198 135 130 128 118 49 74 119 40 63 109 112 110 119 128 134 118 110 107 121 122 111 111 110 106 100 94 89 82 75 66 56 48 46 46 44 46 49 47 46 46 49 53 55 56 53 52 49 45 43 41 38 35 31 28 26 28 27 28 33 36 35 30 30 27 18 13 5 356 351 351 352 351 350 348 346 344 345 349 350 345 339 334 329 326 326 324 321 320 317 316 319 321 317
184 161 132 136 107 100 103 125 62 65 85 88 86 92 101 110 109 113 138 138 121 120 138 125 113 114 116 113 104 95 88 81 75 66 56 49 46 45 45 47 48 48 50 52 57 59 60 60 59 58 54 51 50 49 48 45 42 39 38 39 36 38 40 39 36 33 32 26 20 14 4 358 355 353 352 350 348 345 341 338 337 339 339 337 336 334 330 327 326 324 318 314 311 312 317 319 315
157 143 122 133 121 97 91 94 93 92 86 85 96 96 97 101 98 105 130 128 108 113 127 119 115 119 122 119 110 101 94 86 76 65 56 50 48 48 46 47 50 59 65 65 67 64 63 61 57 58 56 55 54 54 53 51 49 46 45 46 45 46 46 43 43 40 37 34 29 22 14 7 1 355 351 347 343 341 339 336 332 330 328 326 327 327 326 326 325 325 322 316 311 309 311 314 312
119 98 107 129 112 80 89 106 113 109 92 84 104 103 93 91 78 96 121 112 109 133 136 127 123 123 125 120 113 108 100 92 80 67 58 54 54 55 55 61 64 70 72 67 64 60 58 52 47 50 50 47 46 44 43 42 42 40 39 40 42 43 42 40 41 41 40 38 36 33 31 27 20 12 5 358 350 344 340 336 330 326 326 325 327 328 326 323 321 320 319 317 316 315 312 313 312
103 116 126 106 97 89 87 99 92 98 100 105 116 107 92 82 59 93 129 120 135 158 147 142 136 128 129 125 121 119 110 102 96 82 75 71 74 77 76 77 69 63 62 57 55 55 52 44 40 43 41 37 38 38 36 35 35 35 35 36 36 35 33 34 36 38 38 35 34 32 31 31 28 24 19 13 6 360 352 345 339 334 334 333 332 331 327 324 320 318 317 316 317 317 317 317 316
99 112 126 111 121 118 76 46 27 53 100 122 128 113 89 69 64 83 117 118 141 161 149 153 149 141 143 137 131 126 118 116 114 105 105 103 99 94 84 74 62 55 55 52 54 56 52 45 44 45 43 42 43 40 36 36 36 33 33 35 36 36 37 38 37 38 35 30 29 27 26 24 23 22 21 19 15 12 7 2 359 352 345 340 336 331 328 326 324 323 323 320 318 316 315 316 318
117 129 136 153 170 126 96 19 24 49 90 130 131 108 68 21 70 61 78 107 121 136 146 162 160 151 151 144 136 131 128 129 126 126 125 116 105 95 82 69 59 56 58 61 62 62 60 58 58 59 58 56 53 49 44 43 41 35 32 32 32 33 34 34 31 28 25 22 20 18 19 18 16 15 15 14 14 13 11 9 8 5 1 355 349 341 337 335 332 330 329 327 323 319 317 318 320
147 155 142 153 150 122 120 128 86 62 69 123 114 79 24 330 105 83 45 98 112 129 145 161 165 160 155 150 146 143 141 140 137 138 133 122 116 106 93 78 63 61 65 67 68 67 66 68 72 71 66 62 57 54 51 44 39 33 28 21 16 11 7 3 358 2 10 13 13 10 8 7 6 6 4 4 7 8 7 5 5 4 2 1 358 355 352 348 344 339 335 334 332 328 324 322 323
160 253 97 125 125 110 113 130 108 66 67 182 102 87 289 302 189 174 324 98 122 139 146 151 166 171 167 161 157 154 151 147 142 139 139 137 131 121 107 88 69 68 70 71 70 68 70 76 78 71 60 53 49 46 40 30 25 22 18 14 12 9 8 6 2 0 0 3 6 4 0 357 354 354 352 353 356 1 4 3 2 360 356 356 356 355 354 352 352 350 346 341 338 332 325 321 322
166 248 103 105 112 111 117 119 84 90 176 216 89 121 219 304 234 209 192 148 147 146 144 152 167 170 169 167 164 162 158 151 149 149 151 148 139 132 119 98 78 73 72 69 67 64 67 70 65 53 44 42 42 37 29 23 22 22 19 17 15 15 18 17 11 4 358 357 357 355 355 355 354 353 352 352 352 355 359 360 360 358 354 353 353 353 353 354 353 352 351 345 340 335 328 325 326
194 217 113 112 114 117 118 92 82 149 177 57 40 99 125 254 237 233 170 153 163 158 154 166 172 170 172 172 169 166 161 157 159 158 158 155 147 143 124 99 80 68 64 62 61 58 54 50 41 35 36 40 41 37 32 31 30 28 23 20 17 18 21 20 12 3 359 0 0 0 1 2 3 5 6 7 4 1 359 357 357 355 352 350 351 353 354 356 355 350 347 342 339 340 337 335 334
276 88 98 105 106 107 100 83 79 62 97 28 322 55 105 261 268 288 137 150 188 196 184 183 177 172 175 176 172 167 164 164 167 163 162 161 152 142 113 94 68 56 60 62 61 56 48 40 32 31 39 46 45 43 41 39 36 30 24 20 18 18 19 16 7 1 4 9 11 13 14 14 16 17 17 16 14 10 5 2 0 357 355 353 350 350 350 351 352 352 350 345 341 340 338 338 336
124 96 81 75 71 70 66 79 85 42 60 252 273 75 102 279 276 313 84 169 207 202 194 189 181 175 176 178 173 167 167 169 171 166 163 163 149 115 137 100 62 60 67 67 63 57 50 43 37 40 51 54 49 45 42 39 33 27 24 22 20 18 15 10 4 5 12 16 15 17 18 19 20 18 16 12 8 7 4 1 359 357 356 354 351 349 347 345 345 345 345 343 340 335 332 332 331
117 91 74 66 43 35 47 55 83 63 9 265 246 150 111 308 275 203 186 210 191 176 179 186 183 181 180 180 175 170 173 179 178 171 169 168 154 140 188 111 67 73 75 71 68 62 57 54 50 53 57 56 51 45 40 35 29 23 22 23 23 21 15 10 9 12 18 19 17 18 18 19 17 14 10 4 1 1 358 354 352 349 347 346 345 345 345 343 341 339 336 335 333 331 328 326 324
96 85 93 80 17 6 27 359 37 77 280 273 256 167 114 112 273 241 230 240 196 173 174 173 181 186 183 180 179 178 183 190 185 179 180 176 166 195 202 127 89 93 88 80 75 67 63 62 60 57 55 53 49 43 37 30 23 20 21 23 25 26 23 21 21 21 23 20 18 17 15 15 12 9 7 2 0 360 356 354 353 351 350 348 346 345 343 341 339 336 334 333 331 329 326 324 323
78 99 100 85 37 12 21 325 353 191 250 281 249 178 131 228 249 234 237 245 223 196 179 172 177 182 183 182 184 185 190 194 190 186 187 182 178 215 206 143 125 116 105 96 86 77 68 63 61 54 47 45 41 36 30 22 17 17 19 22 25 26 26 26 25 23 21 17 14 11 7 6 5 4 4 1 359 357 354 351 351 352 351 349 346 344 342 341 341 340 338 336 334 330 327 324 324
128 134 114 108 101 70 335 268 316 264 260 297 264 231 301 289 262 223 242 247 225 206 180 175 178 181 183 184 186 189 194 197 193 191 194 191 196 219 203 165 156 143 135 128 109 98 79 56 50 38 32 30 26 23 19 14 12 13 16 20 23 23 23 22 20 17 14 9 6 3 359 357 357 357 357 355 352 351 349 347 346 346 345 343 342 342 342 343 343 343 341 339 336 333 330 326 324
151 142 112 130 151 137 190 213 176 224 256 320 301 264 181 242 273 266 264 220 190 186 177 175 177 181 183 184 187 190 195 198 196 198 204 205 211 218 198 178 176 175 174 173 163 151 146 12 15 7 10 12 8 7 6 4 6 9 13 17 18 19 18 17 13 9 5 360 355 354 351 350 351 351 351 349 346 344 344 344 344 342 341 341 340 340 342 342 341 340 339 337 335 332 330 329 327
184 119 91 214 199 139 132 179 168 173 138 42 269 230 213 216 276 311 25 120 141 152 163 169 173 180 182 185 189 190 195 200 200 206 211 210 216 219 201 188 193 199 199 202 201 197 251 277 305 335 349 353 350 353 355 355 1 6 10 13 13 12 11 8 5 2 358 353 347 347 347 346 347 345 344 344 342 341 341 340 340 340 339 339 339 338 339 339 338 337 337 337 335 335 334 333 331
144 136 207 241 176 121 111 146 31 83 115 254 264 270 303 313 287 327 49 92 113 134 152 163 170 177 182 187 190 193 199 202 206 212 213 212 216 218 207 199 206 213 213 213 219 235 269 281 291 309 330 337 334 344 350 347 354 2 5 7 7 5 3 359 357 356 354 351 347 347 346 344 343 341 340 339 338 338 337 335 335 335 335 335 335 336 337 338 336 333 334 336 336 337 338 338 334
122 193 217 204 125 100 102 108 14 44 143 278 318 242 291 30 216 311 39 86 96 137 151 160 170 178 185 191 195 200 205 206 211 216 215 216 219 218 214 211 214 221 223 223 233 248 262 279 282 288 305 317 320 332 342 340 346 355 358 0 2 360 357 354 353 352 351 349 346 346 345 342 340 338 337 335 333 333 331 330 330 330 331 332 333 335 336 337 337 334 333 333 332 333 335 336 334
129 176 172 116 125 140 85 117 127 96 177 286 315 284 252 192 212 255 210 191 199 190 166 159 174 185 190 195 200 205 208 209 213 215 214 218 220 221 221 218 219 222 223 225 232 241 255 269 274 279 288 298 303 313 329 332 335 346 352 355 357 355 351 351 350 348 347 346 345 344 342 339 338 336 333 330 328 327 327 326 327 328 328 329 331 335 335 335 336 335 334 332 330 330 330 332 331
54 103 90 59 133 158 154 140 148 140 154 245 311 327 270 227 210 195 200 202 183 180 185 184 192 195 196 199 202 206 209 209 212 214 214 217 220 223 223 221 222 224 225 227 229 237 250 261 268 273 279 288 293 301 316 318 323 337 346 350 353 352 351 349 347 345 345 345 344 343 343 342 342 339 333 327 324 324 324 324 325 326 326 328 332 335 332 331 331 331 332 331 329 328 328 329 329
88 95 221 299 58 131 149 97 97 123 141 176 207 311 268 253 207 186 198 200 181 180 187 199 203 202 203 205 207 208 209 209 212 213 214 218 220 223 225 224 225 228 231 231 232 239 247 254 263 267 272 280 285 291 302 304 314 331 340 346 352 353 353 350 345 343 345 345 345 345 346 347 348 347 342 336 331 327 325 325 326 328 330 332 334 333 327 325 327 328 329 329 328 327 327 328 329
160 166 194 176 139 131 122 68 306 96 121 167 155 199 270 263 201 201 203 186 184 187 186 197 206 207 209 211 211 211 210 210 212 213 215 218 219 222 225 226 227 230 232 233 234 238 242 250 258 261 266 273 276 280 288 292 307 325 334 343 350 354 356 354 347 345 347 348 349 349 350 351 353 353 352 350 345 338 331 328 330 334 336 336 334 329 323 324 327 329 330 329 329 328 329 329 330